TimeCDT,TemperatureF,Dew PointF,Humidity,Sea Level PressureIn,VisibilityMPH,Wind Direction,Wind SpeedMPH,Gust SpeedMPH,PrecipitationIn,Events,Conditions,WindDirDegrees,DateUTC
12:15 AM,66.2,64.4,94,29.90,10.0,SSW,4.6,-,N/A,,Overcast,210,2013-07-27 05:15:00
12:35 AM,66.2,64.4,94,29.90,7.0,SW,4.6,-,N/A,,Overcast,220,2013-07-27 05:35:00
12:55 AM,68.0,64.4,88,29.90,10.0,SW,5.8,-,N/A,,Overcast,230,2013-07-27 05:55:00
1:15 AM,68.0,64.4,88,29.89,10.0,WSW,5.8,-,N/A,,Overcast,240,2013-07-27 06:15:00
1:35 AM,66.2,64.4,94,29.89,7.0,WSW,5.8,-,N/A,,Mostly Cloudy,240,2013-07-27 06:35:00
1:55 AM,66.2,64.4,94,29.89,7.0,WSW,4.6,-,N/A,,Scattered Clouds,250,2013-07-27 06:55:00
2:15 AM,64.4,62.6,94,29.88,5.0,SW,3.5,-,N/A,,Scattered Clouds,220,2013-07-27 07:15:00
2:35 AM,62.6,62.6,100,29.89,4.0,SSW,4.6,-,N/A,,Scattered Clouds,210,2013-07-27 07:35:00
2:55 AM,62.6,60.8,94,29.89,4.0,SW,5.8,-,N/A,,Clear,230,2013-07-27 07:55:00
3:15 AM,60.8,60.8,100,29.88,5.0,SW,4.6,-,N/A,,Clear,220,2013-07-27 08:15:00
3:35 AM,60.8,60.8,100,29.89,7.0,SW,5.8,-,N/A,,Clear,230,2013-07-27 08:35:00
3:55 AM,60.8,59.0,94,29.89,7.0,WSW,5.8,-,N/A,,Clear,240,2013-07-27 08:55:00
4:15 AM,59.0,59.0,100,29.89,10.0,SW,4.6,-,N/A,,Scattered Clouds,230,2013-07-27 09:15:00
4:35 AM,59.0,57.2,94,29.89,10.0,WSW,3.5,-,N/A,,Scattered Clouds,250,2013-07-27 09:35:00
4:55 AM,59.0,57.2,94,29.89,10.0,West,5.8,-,N/A,,Clear,270,2013-07-27 09:55:00
5:15 AM,57.2,55.4,94,29.89,10.0,West,4.6,-,N/A,,Clear,260,2013-07-27 10:15:00
5:35 AM,55.4,55.4,100,29.89,10.0,West,4.6,-,N/A,,Clear,260,2013-07-27 10:35:00
5:55 AM,55.4,55.4,100,29.89,10.0,West,4.6,-,N/A,,Clear,280,2013-07-27 10:55:00
6:15 AM,55.4,55.4,100,29.90,10.0,West,5.8,-,N/A,,Clear,280,2013-07-27 11:15:00
6:35 AM,57.2,55.4,94,29.90,10.0,West,5.8,-,N/A,,Clear,270,2013-07-27 11:35:00
6:55 AM,59.0,57.2,94,29.90,10.0,West,6.9,-,N/A,,Clear,280,2013-07-27 11:55:00
7:15 AM,59.0,57.2,94,29.90,10.0,West,6.9,-,N/A,,Clear,280,2013-07-27 12:15:00
7:35 AM,60.8,57.2,88,29.91,10.0,West,8.1,-,N/A,,Clear,280,2013-07-27 12:35:00
7:55 AM,60.8,59.0,94,29.91,10.0,WNW,6.9,-,N/A,,Clear,300,2013-07-27 12:55:00
8:15 AM,62.6,59.0,88,29.90,10.0,WNW,3.5,-,N/A,,Clear,300,2013-07-27 13:15:00
8:35 AM,64.4,60.8,88,29.90,10.0,NW,6.9,-,N/A,,Clear,310,2013-07-27 13:35:00
8:55 AM,66.2,60.8,83,29.90,10.0,WNW,5.8,-,N/A,,Clear,290,2013-07-27 13:55:00
9:15 AM,68.0,60.8,78,29.89,10.0,NNW,4.6,-,N/A,,Scattered Clouds,330,2013-07-27 14:15:00
9:35 AM,68.0,60.8,78,29.89,10.0,NW,5.8,-,N/A,,Scattered Clouds,320,2013-07-27 14:35:00
9:55 AM,68.0,60.8,78,29.89,10.0,West,6.9,-,N/A,,Mostly Cloudy,260,2013-07-27 14:55:00
10:15 AM,68.0,60.8,78,29.89,10.0,West,10.4,-,N/A,,Overcast,270,2013-07-27 15:15:00
10:35 AM,68.0,60.8,78,29.89,10.0,WNW,8.1,-,N/A,,Overcast,290,2013-07-27 15:35:00
10:55 AM,68.0,60.8,78,29.89,10.0,WNW,6.9,-,N/A,,Overcast,290,2013-07-27 15:55:00
11:15 AM,68.0,60.8,78,29.89,10.0,West,9.2,-,N/A,,Scattered Clouds,280,2013-07-27 16:15:00
11:35 AM,69.8,59.0,68,29.89,10.0,West,10.4,-,N/A,,Scattered Clouds,260,2013-07-27 16:35:00
11:55 AM,69.8,59.0,68,29.89,10.0,West,8.1,16.1,N/A,,Mostly Cloudy,260,2013-07-27 16:55:00
12:15 PM,69.8,59.0,68,29.89,10.0,WSW,11.5,18.4,N/A,,Scattered Clouds,250,2013-07-27 17:15:00
12:35 PM,69.8,59.0,68,29.89,10.0,West,13.8,19.6,N/A,,Mostly Cloudy,270,2013-07-27 17:35:00
12:55 PM,69.8,59.0,68,29.89,10.0,West,12.7,19.6,N/A,,Scattered Clouds,270,2013-07-27 17:55:00
1:15 PM,69.8,57.2,64,29.89,10.0,WNW,12.7,18.4,N/A,,Scattered Clouds,290,2013-07-27 18:15:00
1:35 PM,69.8,55.4,60,29.89,10.0,West,15.0,18.4,N/A,,Mostly Cloudy,280,2013-07-27 18:35:00
1:55 PM,69.8,53.6,56,29.89,10.0,West,15.0,24.2,N/A,,Scattered Clouds,280,2013-07-27 18:55:00
2:15 PM,68.0,53.6,60,29.89,10.0,West,10.4,21.9,N/A,,Scattered Clouds,270,2013-07-27 19:15:00
2:35 PM,69.8,51.8,53,29.89,10.0,West,15.0,20.7,N/A,,Scattered Clouds,280,2013-07-27 19:35:00
2:55 PM,71.6,50.0,46,29.89,10.0,WNW,15.0,20.7,N/A,,Scattered Clouds,290,2013-07-27 19:55:00
3:15 PM,69.8,48.2,46,29.89,10.0,WNW,17.3,23.0,N/A,,Scattered Clouds,290,2013-07-27 20:15:00
3:35 PM,69.8,48.2,46,29.90,10.0,West,13.8,19.6,N/A,,Mostly Cloudy,280,2013-07-27 20:35:00
3:55 PM,68.0,46.4,46,29.89,10.0,West,9.2,21.9,N/A,,Mostly Cloudy,270,2013-07-27 20:55:00
4:15 PM,69.8,48.2,46,29.89,10.0,WNW,13.8,19.6,N/A,,Scattered Clouds,290,2013-07-27 21:15:00
4:35 PM,68.0,46.4,46,29.89,10.0,WNW,8.1,18.4,N/A,,Scattered Clouds,300,2013-07-27 21:35:00
4:55 PM,69.8,46.4,43,29.90,10.0,WNW,9.2,23.0,N/A,,Scattered Clouds,290,2013-07-27 21:55:00
5:15 PM,68.0,46.4,46,29.90,10.0,WNW,11.5,17.3,N/A,,Scattered Clouds,290,2013-07-27 22:15:00
5:35 PM,68.0,46.4,46,29.90,10.0,WNW,11.5,19.6,N/A,,Scattered Clouds,300,2013-07-27 22:35:00
5:55 PM,64.4,46.4,52,29.91,10.0,NW,9.2,17.3,N/A,,Scattered Clouds,310,2013-07-27 22:55:00
6:15 PM,64.4,46.4,52,29.91,10.0,West,12.7,20.7,N/A,,Scattered Clouds,280,2013-07-27 23:15:00
6:35 PM,64.4,46.4,52,29.91,10.0,West,11.5,18.4,N/A,,Mostly Cloudy,280,2013-07-27 23:35:00
6:55 PM,64.4,46.4,52,29.92,10.0,WNW,10.4,18.4,N/A,,Mostly Cloudy,290,2013-07-27 23:55:00
7:15 PM,64.4,46.4,52,29.92,10.0,WNW,11.5,18.4,N/A,,Overcast,300,2013-07-28 00:15:00
7:35 PM,62.6,44.6,52,29.92,10.0,WNW,10.4,-,N/A,,Mostly Cloudy,300,2013-07-28 00:35:00
7:55 PM,60.8,44.6,55,29.93,10.0,WNW,6.9,-,N/A,,Mostly Cloudy,290,2013-07-28 00:55:00
8:15 PM,59.0,44.6,59,29.93,10.0,WNW,5.8,-,N/A,,Mostly Cloudy,290,2013-07-28 01:15:00
8:35 PM,59.0,44.6,59,29.93,10.0,West,4.6,-,N/A,,Mostly Cloudy,280,2013-07-28 01:35:00
8:55 PM,55.4,46.4,72,29.94,10.0,SW,4.6,-,N/A,,Mostly Cloudy,230,2013-07-28 01:55:00
9:15 PM,57.2,46.4,67,29.94,10.0,West,3.5,-,N/A,,Overcast,260,2013-07-28 02:15:00
9:35 PM,57.2,46.4,67,29.95,10.0,West,4.6,-,N/A,,Mostly Cloudy,270,2013-07-28 02:35:00
9:55 PM,57.2,46.4,67,29.95,10.0,West,3.5,-,N/A,,Overcast,260,2013-07-28 02:55:00
10:15 PM,55.4,48.2,77,29.94,10.0,WSW,3.5,-,N/A,,Mostly Cloudy,250,2013-07-28 03:15:00
10:35 PM,55.4,48.2,77,29.94,10.0,WSW,4.6,-,N/A,,Scattered Clouds,250,2013-07-28 03:35:00
10:55 PM,53.6,48.2,82,29.95,10.0,WSW,5.8,-,N/A,,Clear,250,2013-07-28 03:55:00
11:15 PM,51.8,48.2,88,29.95,10.0,WSW,5.8,-,N/A,,Clear,240,2013-07-28 04:15:00
11:35 PM,51.8,46.4,82,29.94,10.0,SW,4.6,-,N/A,,Clear,220,2013-07-28 04:35:00
11:55 PM,51.8,48.2,88,29.94,10.0,SW,5.8,-,N/A,,Scattered Clouds,230,2013-07-28 04:55:00